Content
SEND FEEDBACK

Daily
Averages
Monthly
Summary
Mexico

LUIS DONALDO COLOSIO, PUEBLA


Home > North America > Mexico > Puebla
Elevation: 6778 feet     Latitude: 18 57N     Longitude: 098 16W

WEATHER
 
SELECT A DAY
Number of Records: 121,122;   Date Range: 1/1/95 - 8/31/14
 
SHARE

PRINT THIS DATA

[ ← Previous Day ]
WEATHER ALMANAC - FEBRUARY 9, 2013
[ Next Day → ]
[ °C ]   °F
Weather ElementAverageHighLow
Temperature62.8 °F78 °F (2:50 pm)39.2 °F (6:43 am)
Dewpoint30.3 °F35 °F (8:50 am)24.8 °F (1:40 pm)
Humidity31.3 %76 % (5:47 am)9 % (2:50 pm)
Barometer30.19 in30.40 in (9:42 am)29.65 in (8:45 pm)
Wind Speed8 mph19.6 mph (2:41 pm)
Wind Gust23 mph (3:42 pm)
Weather ElementAverage
Visibility8.9 mi
Wind DirectionSSW (217 °)

Weather ElementTotal
Precipitation---
Heating Degree Days6.4 (Base 65)
Growing Degree Days8.6 (Base 50)
Averaged from 25 records on February 9, 2013
WEATHER CONDITIONS BREAKOUT
WIND DIRECTION BREAKOUT
WEATHER BY HOUR - FEBRUARY 9, 2013
[ °C ]   °F
Local TimeTemperatureDewpointHumidityBarometerVisibilityWind DirectionWind SpeedGust SpeedPrecipitationEventsConditions
5:47 AM41.0 °F33.8 °F76 %30.34 in7.0 miNNW (340°)8.1 mphClear
6:43 AM39.2 °F32.0 °F75 %30.36 in8.0 miNNW (330°)9.2 mphClear
7:40 AM42.8 °F33.8 °F70 %30.37 in7.0 miNW (320°)9.2 mphClear
8:40 AM51.8 °F33.8 °F50 %30.38 in7.0 miNNW (340°)10.4 mphClear
8:50 AM54.0 °F35.0 °F37 %30.07 in3.0 miCalmHaze
9:42 AM62.6 °F32.0 °F32 %30.40 in7.0 miNNE (30°)4.6 mphClear
10:40 AM68.0 °F28.4 °F23 %30.39 in8.0 miESE (120°)5.8 mphClear
11:40 AM71.6 °F26.6 °F19 %30.37 in10.0 miSouth (180°)16.1 mphClear
11:50 AM73.0 °F33.0 °F13 %30.04 in12.0 miESE (120°)4.5 mph
12:43 PM73.4 °F28.4 °F19 %30.33 in10.0 miSE (140°)9.2 mphClear
1:40 PM75.2 °F24.8 °F15 %30.29 in11.0 miSW (230°)12.7 mphClear
2:41 PM77.0 °F26.6 °F16 %30.26 in11.0 miSouth (180°)19.6 mphClear
2:50 PM78.0 °F31.0 °F9 %29.81 in12.0 miSouth (180°)4.5 mph
3:42 PM77.0 °F28.4 °F17 %30.24 in11.0 miSSW (210°)11.5 mph23.0 mphClear
4:44 PM75.2 °F30.2 °F19 %30.23 in11.0 miSSW (210°)16.1 mphClear
5:43 PM71.6 °F28.4 °F20 %30.24 in12.0 miSouth (190°)16.1 mphClear
5:50 PM74.0 °F29.0 °F10 %29.68 in12.0 miSSE (150°)2.2 mph
6:40 PM66.2 °F30.2 °F26 %30.23 in11.0 miSouth (180°)13.8 mphClear
7:41 PM62.6 °F30.2 °F30 %30.26 in10.0 miSW (220°)5.8 mphClear
8:42 PM59.0 °F28.4 °F31 %30.28 in9.0 miWSW (250°)6.9 mphClear
8:45 PM64.0 °F31.0 °F18 %29.65 in3.0 miCalm
9:43 PM51.8 °F30.2 °F44 %30.30 in9.0 miNorth (350°)4.6 mphClear
10:45 PM51.8 °F32.0 °F47 %30.31 in9.0 miNorth (360°)4.6 mphClear
11:43 PM50.0 °F28.4 °F43 %30.31 in9.0 miWNW (300°)3.5 mphClear
11:45 PM59.0 °F31.0 °F23 %29.72 in3.0 miENE (60°)2.2 mph
Hourly data recorded from MMPB, located miles away from Luis Donaldo Colosio, Puebla







STORIES FROM OUR PARTNERS